Regional Weather Roundup
Issued by NWS Cleveland, OH

Home | Current Version | Previous Version | Graphics & Text | Print | Product List | Glossary On
Versions: 1 2 3 4 5 6 7 8 9 10 11 12 13 14 15 16 17 18 19 20 21 22 23 24 25 26 27 28 29 30 31 32 33 34 35 36 37 38 39 40 41 42 43 44 45 46 47 48 49 50
000
ASUS41 KCLE 251510
RWRCLE
OHIO REGIONAL WEATHER ROUNDUP
NATIONAL WEATHER SERVICE WILMINGTON, OH
1100 AM EDT MON SEP 25 2017

NOTE: "FAIR" INDICATES FEW OR NO CLOUDS BELOW 12,000 FEET WITH NO
SIGNIFICANT WEATHER AND/OR OBSTRUCTIONS TO VISIBILITY.

OHZ001>008-015>018-024>027-034-035-043-044-251600-
   NORTHWEST OHIO

CITY           SKY/WX    TMP DP  RH WIND       PRES   REMARKS
DEFIANCE       FAIR      79  64  60 CALM      30.07F
FINDLAY        FAIR      82  61  48 CALM      30.07S
TOLEDO EXPRESS FAIR      81  70  69 W3        30.07S
TOLEDO EXEC    FAIR      81  64  56 CALM      30.07F
LIMA           FAIR      81  60  48 CALM      30.08F
$$

OHZ009>014-019>023-028>033-038-089-251600-
   NORTHEAST OHIO

CITY           SKY/WX    TMP DP  RH WIND       PRES   REMARKS
CLE-HOPKINS    FAIR      89  64  43 VRB7      30.09F HX  90
CLE-LAKEFRONT  FAIR      81  66  60 NW3       30.07S
CUY CO. ARPT   MOSUNNY   86  66  51 S9        30.10S
LORAIN-ELYRIA  FAIR      81  62  52 S5        30.09S
ASHTABULA      FAIR      81  67  62 S8        30.12S
AKRON-CANTON   FAIR      81  64  56 E3        30.12S
WOOSTER        FAIR      82  65  56 VRB5      30.11S
MANSFIELD      FAIR      81  64  56 S5        30.11S
YOUNGSTOWN     PTSUNNY   80  66  62 SE3       30.12F
$$

OHZ042-051>053-060>062-070>072-077>081-251600-
  SOUTHWEST OHIO

CITY           SKY/WX    TMP DP  RH WIND       PRES   REMARKS
CINC-COVINGTON PTSUNNY   80  63  55 CALM      30.08S
CINC-LUNKEN    FAIR      77  64  64 CALM      30.08S
HAMILTON       FAIR      78  65  63 CALM      30.08S
DAYTON         FAIR      79  61  53 CALM      30.09S
WRIGHT-PAT AFB FAIR      76  67  72 CALM      30.08S
DAYTON GENERAL FAIR      78  62  57 CALM      30.08S
WILMINGTON     FAIR      80  66  62 CALM      30.08S
$$

OHZ036-037-039>041-045>050-054>059-063>069-073>076-082>088-251600-
  CENTRAL AND SOUTHEAST OHIO

CITY           SKY/WX    TMP DP  RH WIND       PRES   REMARKS
COLUMBUS       FAIR      80  65  59 CALM      30.07S
OSU AIRPORT    FAIR      79  67  66 CALM      30.08S
BOLTON FIELD   SUNNY     79  66  65 CALM      30.09S
RICKENBACK AFB FAIR      78  65  64 SW3       30.07F
NEWARK         FAIR      79  64  60 S5        30.08F
MARION         FAIR      81  62  52 VRB6      30.09S
LANCASTER      FAIR      76  66  71 S5        30.09S
ZANESVILLE     FAIR      77  64  64 SE5       30.09F
NEW PHILLY     FAIR      80  66  62 VRB3      30.11S
$$




USA.gov is the U.S. government's official web portal to all federal, state and local government web resources and services.